Погода Алматы

Погода Алматы : погода сейчас, прогноз погоды и архив. Всё, что Вы хотите узнать о погоде Алматы!

Поиск расширенной информации на нашем сайте:

Другие новости

Новости СМИ2

Главная страница сайта

Новости сайта

03.07.2017

Напоминаем, что на нашем специализированном сайте Метеоцентр.Азия вы можете получить высокодетализированные автоматические прогнозы погоды по пунктам России, СНГ и мира в авиационном формате (включающие направление и скорость ветра, видимость, явления погоды, количество и форму облачности, нижнюю и верхнюю границу облачности).

Рекомендуем: Срочный ремонт ноутбуков в павловском посаде избавит вас от лишних хлопот.

Погода Алматы - сегодня

Время (UTC), дата Ветер
(°,м/с) 
Видим.   Явления Облачность Т
(°С)
Тd
(°С)
f(%) Тe
(°С)
Pmin
(гПа)
dP
(гПа)
Po
(мм)
O2
(г/м3)
Тmin Tmax R s Состояние
почвы
03 20.07.17 тихо ()   20000 м    3/1 1000 м средняя 
[Cu med, cong|Ac trans]
+22.6 +8.9 42 +24  1008.8  -0.1  687  254           
06 20.07.17 040 (СВ) 10 км    1/1 1000 м 
[Cu med, cong]
+26.8 +9.8 34 +29  1006.8  -0.5  687  250  +16.4         
09 20.07.17 350 (С) 10 км    3/1 1000 м верхняя 
[Cu med, cong|Ci fib]
+28.5 +12 36 +34  1005.4  -0.8  686  248           
12 20.07.17 040 (СВ) 10 км    1/1 1000 м 
[Cu hum]
+28 +7.3 27 +28  1005.3  -0.3  686  249           
15 20.07.17 тихо ()   10 км    ясно 
+24.6 +11.7 44 +30  1007  0.6  686  251    +29.5       
18 20.07.17 250 (З) н/о    ясно 
+20.8 +10.6 52 +25  1008.2  686  255    +29.5       
21 20.07.17 тихо ()   н/о    ясно 
+18.9 +8.8 52 +20  1008.8  -0.1  686  257           
00 21.07.17 250 (З) 1{03}  20000 м    ясно 
+18.6 +8.2 51 +21  1008.7  -0.2  686  257           
03 21.07.17 тихо ()   20000 м    ясно 
+24.6 +10.3 40 +28  1007.5  0.8  687  252           
06 21.07.17 020 (С) 20000 м    1/1 1000 м 
[Cu med, cong]
+28.8 +10.9 33 +33  1006.1  -0.1  687  248  +17.7         
09 21.07.17 360 (С) 10 км    1/1 1000 м 
[Cu med, cong]
+31.2 +11.9 31 +37  1003.9  -1.3  686  246           
12 21.07.17 030 (СВ) 10 км    1/1 1000 м 
[Cu med, cong]
+29.6 +8.1 26 +30  1004.4  -0.1  686  248           
15 21.07.17 060 (СВ) 10 км    ясно 
+25.9 +11.1 40 +30  1006.4  0.8  686  250    +31.6       
18 21.07.17 тихо ()   н/о    ясно 
+23.1 +6.6 34 +23  1007.5  0.1  686  254    +31.6       
21 21.07.17 тихо ()   н/о    6/0 верхняя 
[Ci fib]
+21 +6.9 40 +21  1007.8  -0.3  686  255           
00 22.07.17 тихо () {05}  10 км    3/3 1000 м верхняя 
[Cu med, cong|Ci fib]
+18.7 +8.7 52 +20  1008.9  0.3  686  257           
03 22.07.17 тихо ()   20000 м    1/0 верхняя 
[Ci fib]
+27.4 +13.1 41 +35  1006.7  0.8  687  249  +17.8        сухая 
06 22.07.17 180 (Ю) 20000 м    1/0 верхняя 
[Ci fib]
+29.8 +11.7 33 +35  1006.2  0.1  687  247  +17.8         
09 22.07.17 120 (ЮВ) 20000 м    1/1 1000 м 
[Cu hum]
+32.2 +13.4 32 +40  1005  -0.4  687  245           
12 22.07.17 020 (С) 20000 м    ясно 
+30.8 +12.3 32 +37  1005.1  -0.3  686  246           
15 22.07.17 тихо ()   10 км    ясно 
+26.2 +12.1 41 +32  1006.7  0.2  686  250    +33       
18 22.07.17 тихо ()   н/о    ясно 
+23.2 +10.5 45 +27  1007.3  -0.4  686  253    +33       
21 22.07.17 тихо ()   н/о    ясно 
+21.2 +9.8 48 +24  1006.7  -1.2  685  254           
00 23.07.17 тихо () {05}  20000 м    ясно 
+19.4 +9.4 52 +22  1008.4  686  256           
03 23.07.17 тихо ()   20000 м    ясно 
+26 +11.4 40 +31  1005.7  -0.5  686  250  +19        сухая 
Время (UTC), дата Ветер
(°,м/с) 
Видим.   Явления Облачность Т
(°С)
Тd
(°С)
f(%) Тe
(°С)
Pmin
(гПа)
dP
(гПа)
Po
(мм)
O2
(г/м3)
Тmin Tmax R s Состояние
почвы

Для получения пояснительной информации подведите курсор к названию столбца.

ПОГОДА Алматы - архив

Всё, что Вы хотите узнать о погоде Алматы - удобно и подробно!

Выберите нужную дату (начиная с 1 января 2015* года) и нажмите кнопку "Найти".
Будут отображены архивные сводки погоды по пункту Алматы, начиная с указанной даты.


Отображать данные в формате CSV (для использования в таблицах Excel)


Внимание! Наш архив погоды предназначен исключительно для личного некоммерческого использования в познавательных целях. Если Вам необходимы официальные справки о состоянии погоды (для производственных, юридических, коммерческих и т.п. целей), обращайтесь в органы Росгидромета.

*Примечание: данная дата относится к архиву по метеостанциям СССР (Россия, СНГ, Балтия).
Архив по метеостанциям Зарубежной Европы и Азии (кроме Китая) хранится 10 дней, по другим регионам земного шара (Китай, Африка, Америка, Австралия, Океания) - 1 день.

Алматы - район местоположения метеостанции


Название, широта, долгота, высота метеостанции:
Алматы (город) 43.2°ш. 76.9°д. 851 м над ур. моря [Казахстан]

Дополнительная информация

В oтличие oт бoльшинства пoгoдных сайтoв мы публикуем пoдрoбную метеoинфoрмацию в детальнoм прoфессиoнальнoм фoрмате.

Характеристики температуры и влажнoсти вoздуха измеряются на высoте 2 м в тени вдали oт зданий и деревьев.
Скoрoсть ветра измеряется на высoте 10 м (на урoвне рoста челoвека скoрoсть ветра ниже в 1.5-2 раза). Если метеoстанция нахoдится в гoрoде или в лесу, тo скoрoсть ветра занижена на 2-4 м/с пo сравнению с oткрытым местoм. Скoрoсть ветра над акватoриями крупных рек и oзёр, а также на вершинах хoлмoв на 2-5 м/с выше, чем в oбычных услoвиях.
Атмoсфернoе давление в разных тoчках местнoсти мoжет значительнo oтличаться oт давления на метеoстанции, в зависимoсти oт услoвий рельефа (при пoдъёме на 10 м давление пoнижается примернo на 1 мм рт.ст.).